Location: ????????
(54.9045°N, 39.1041°E)
Time: 03:27:26
(UTC+00:00)

NOSS 3-4 (C) - Visible Passes

Search period start: 19 July 2024 00:00
Search period end: 29 July 2024 00:00
Orbit: 814 x 1397 km, 63.4° (Epoch: 04 June)

Date Brightness Start Highest point End Pass type
(mag) Time Alt. Az. Time Alt. Az. Time Alt. Az.
19 Jul 5.2 22:58:33 10° SSE 23:02:12 18° ESE 23:06:02 10° ENE visible
20 Jul 5.5 22:16:29 10° ESE 22:17:52 11° ESE 22:19:16 10° E visible
21 Jul 3.8 00:01:45 10° SSW 00:07:07 51° SE 00:13:04 10° NE visible
21 Jul 4.3 23:18:00 12° S 23:22:28 35° ESE 23:27:53 10° ENE visible
22 Jul 4.8 22:34:25 13° SSE 22:37:57 23° ESE 22:42:32 10° ENE visible
23 Jul 3.4 00:22:16 10° SW 00:27:55 86° SE 00:34:15 10° NE visible
23 Jul 5.2 21:50:48 11° SE 21:53:33 15° ESE 21:56:41 10° ENE visible
23 Jul 3.5 23:38:13 14° SSW 23:43:03 63° SE 23:49:12 10° NE visible
24 Jul 3.9 22:54:34 18° S 22:58:20 43° SE 23:04:06 10° NE visible
25 Jul 4.4 22:10:53 19° SSE 22:13:44 29° ESE 22:18:52 10° ENE visible
25 Jul 3.4 23:58:18 10° SW 00:03:58 81° NW 00:10:22 10° NE visible
26 Jul 4.8 21:27:10 16° SE 21:29:16 19° ESE 21:33:20 10° ENE visible
26 Jul 3.3 23:14:35 17° SW 23:19:02 77° SE 23:25:19 10° NE visible
27 Jul 5.2 20:43:26 11° ESE 20:44:54 12° ESE 20:46:59 10° E visible
27 Jul 3.6 22:30:51 23° SSW 22:34:14 54° SE 22:40:15 10° NE visible
28 Jul 4.0 00:19:30 10° WSW 00:25:10 55° NNW 00:31:33 10° NE visible
28 Jul 4.0 21:47:04 25° SSE 21:49:34 37° ESE 21:55:06 10° ENE visible
28 Jul 3.6 23:34:28 10° WSW 23:40:03 69° NNW 23:46:28 10° NE visible
